Weather History for Monterey, CA

Change the Weather History Date:

Wednesday, January 8, 2014

  Actual Average Record
Temperature  
Mean Temperature 53 °F 51 °F  
Max Temperature 58 °F 59 °F 72 °F (2010)
Min Temperature 48 °F 42 °F 37 °F (1999)
Degree Days  
Heating Degree Days 12    
Month to date heating degree days 91  
Since 1 July heating degree days 1306  
Cooling Degree Days 0    
Month to date cooling degree days 0  
Year to date cooling degree days 0  
Growing Degree Days 2 (Base 50)    
Moisture  
Dew Point 47 °F    
Average Humidity 80    
Maximum Humidity 93    
Minimum Humidity 67    
Precipitation  
Precipitation 0.00 in - 0.60 in (1950)
Month to date precipitation 0.00  
Year to date precipitation 0.00  
Since 1 July precipitation 1.28  
Sea Level Pressure  
Sea Level Pressure 30.23 in    
Wind  
Wind Speed 4 mph (West)    
Max Wind Speed 12 mph    
Max Gust Speed 16 mph    
Visibility 10 miles    
Events      
T = Trace of Precipitation, MM = Missing Value Source: NWS Daily Summary

Daily Weather History Graph

Daily Weather History Graph

Search for Another Location

Airport:

Trip Planner

Search our weather history database for the weather conditions in past years. The results will help you decide how hot, cold, wet, or windy it might be!

Date:

Astronomy

Jan. 08, 2014 Rise Set
Actual Time 7:19 AM PST 5:08 PM PST
Civil Twilight 6:51 AM PST 5:37 PM PST
Nautical Twilight 6:19 AM PST 6:09 PM PST
Astronomical Twilight 5:48 AM PST 6:40 PM PST
Moon 11:59 AM PST (1/8) 12:36 AM PST (1/8)
Length of Visible Light 10h 45m
Length of Day
9h 48m
First Quarter, 57% of the Moon is Illuminated
Jan 8
First Quarter
Jan 15
Full
Jan 23
Last Quarter
Jan 30
New
Feb 6
First Quarter

Hourly Weather History & Observations

Time (PST) Temp. Dew Point Humidity Pressure Visibility Wind Dir Wind Speed Gust Speed Precip Events Conditions
12:12 AM 55.4 °F 51.8 °F 88% 30.21 in 10.0 mi West 3.5 mph - N/A   Overcast
12:54 AM 54.0 °F 51.1 °F 90% 30.23 in 10.0 mi Calm Calm - N/A   Overcast
1:54 AM 54.0 °F 46.9 °F 77% 30.23 in 10.0 mi SE 5.8 mph - N/A   Overcast
2:01 AM 53.6 °F 46.4 °F 77% 30.19 in 10.0 mi SE 4.6 mph - N/A   Overcast
2:24 AM 51.8 °F 46.4 °F 82% 30.19 in 10.0 mi South 4.6 mph - N/A   Scattered Clouds
2:54 AM 52.0 °F 46.9 °F 83% 30.23 in 10.0 mi South 4.6 mph - N/A   Clear
3:54 AM 48.0 °F 44.1 °F 86% 30.22 in 10.0 mi Calm Calm - N/A   Clear
4:01 AM 48.2 °F 44.6 °F 87% 30.18 in 10.0 mi Calm Calm - N/A   Partly Cloudy
4:20 AM 50.0 °F 46.4 °F 87% 30.18 in 10.0 mi South 4.6 mph - N/A   Mostly Cloudy
4:54 AM 50.0 °F 46.9 °F 89% 30.22 in 10.0 mi Calm Calm - N/A   Overcast
5:54 AM 48.9 °F 43.0 °F 80% 30.22 in 10.0 mi East 3.5 mph - N/A   Mostly Cloudy
6:36 AM 48.2 °F 42.8 °F 82% 30.20 in 10.0 mi North 3.5 mph - N/A   Overcast
6:42 AM 48.2 °F 42.8 °F 82% 30.20 in 10.0 mi Calm Calm - N/A   Overcast
6:54 AM 48.9 °F 43.0 °F 80% 30.25 in 10.0 mi Calm Calm - N/A   Overcast
7:03 AM 48.2 °F 44.6 °F 87% 30.22 in 10.0 mi Calm Calm - N/A   Overcast
7:12 AM 50.0 °F 44.6 °F 82% 30.22 in 10.0 mi Calm Calm - N/A   Overcast
7:45 AM 48.2 °F 44.6 °F 87% 30.22 in 10.0 mi East 8.1 mph - N/A   Overcast
7:54 AM 48.9 °F 45.0 °F 86% 30.26 in 10.0 mi East 6.9 mph - N/A   Overcast
8:54 AM 53.1 °F 46.9 °F 80% 30.26 in 10.0 mi East 5.8 mph - N/A   Overcast
9:54 AM 55.0 °F 46.9 °F 74% 30.27 in 10.0 mi Calm Calm - N/A   Overcast
10:46 AM 55.4 °F 46.4 °F 72% 30.23 in 10.0 mi West 3.5 mph - N/A   Scattered Clouds
10:54 AM 55.9 °F 46.0 °F 69% 30.26 in 10.0 mi NW 3.5 mph - N/A   Partly Cloudy
11:54 AM 57.0 °F 46.0 °F 67% 30.25 in 10.0 mi West 9.2 mph - N/A   Clear
12:22 PM 55.4 °F 48.2 °F 77% 30.21 in 10.0 mi West 11.5 mph - N/A   Mostly Cloudy
12:54 PM 55.0 °F 48.9 °F 80% 30.23 in 10.0 mi NW 6.9 mph - N/A   Mostly Cloudy
1:54 PM 55.0 °F 48.9 °F 80% 30.21 in 10.0 mi WNW 5.8 mph - N/A   Overcast
2:04 PM 55.4 °F 48.2 °F 77% 30.16 in 10.0 mi Variable 3.5 mph - N/A   Overcast
2:54 PM 55.0 °F 48.9 °F 80% 30.21 in 10.0 mi West 4.6 mph - N/A   Overcast
3:40 PM 55.4 °F 50.0 °F 82% 30.18 in 10.0 mi West 3.5 mph - N/A   Overcast
3:54 PM 55.0 °F 50.0 °F 83% 30.22 in 10.0 mi West 5.8 mph - N/A   Overcast
4:54 PM 54.0 °F 50.0 °F 86% 30.22 in 10.0 mi West 8.1 mph - N/A   Overcast
5:54 PM 54.0 °F 50.0 °F 86% 30.23 in 10.0 mi Variable 5.8 mph - N/A   Overcast
6:06 PM 53.6 °F 50.0 °F 88% 30.19 in 10.0 mi West 8.1 mph - N/A   Overcast
6:54 PM 54.0 °F 50.0 °F 86% 30.25 in 10.0 mi West 11.5 mph 16.1 mph N/A   Overcast
7:29 PM 53.6 °F 50.0 °F 88% 30.21 in 10.0 mi West 3.5 mph - N/A   Mostly Cloudy
7:52 PM 55.4 °F 48.2 °F 77% 30.22 in 10.0 mi West 11.5 mph 16.1 mph N/A   Overcast
7:54 PM 54.0 °F 48.9 °F 83% 30.26 in 10.0 mi West 8.1 mph 16.1 mph N/A   Overcast
8:20 PM 53.6 °F 48.2 °F 82% 30.23 in 10.0 mi West 6.9 mph - N/A   Scattered Clouds
8:54 PM 54.0 °F 48.9 °F 83% 30.28 in 10.0 mi West 6.9 mph - N/A   Scattered Clouds
9:02 PM 53.6 °F 48.2 °F 82% 30.25 in 10.0 mi West 6.9 mph - N/A   Mostly Cloudy
9:28 PM 53.6 °F 48.2 °F 82% 30.24 in 10.0 mi Calm Calm - N/A   Scattered Clouds
9:54 PM 52.0 °F 48.0 °F 86% 30.27 in 10.0 mi Calm Calm - N/A   Partly Cloudy
10:13 PM 51.8 °F 48.2 °F 88% 30.23 in 10.0 mi Calm Calm - N/A   Mostly Cloudy
10:40 PM 50.0 °F 46.4 °F 87% 30.22 in 10.0 mi Calm Calm - N/A   Overcast
10:54 PM 50.0 °F 46.0 °F 86% 30.25 in 10.0 mi ESE 3.5 mph - N/A   Scattered Clouds
11:54 PM 48.9 °F 46.0 °F 90% 30.25 in 10.0 mi Calm Calm - N/A   Clear